OMDW

Dubai World Central - Al Maktoum International Airport

Airport
ICAO code
OMDW
IATA Code
DWC
Summary
ICAO Region
MID
ICAO Territory
Location

Jebel Ali,

Serving
Dubai
Elevation
171 ft
Coordinates
24° 53' 44" N , 55° 9' 33" E
KCC
Metar
Observation
OMDW 062200Z 08005KT 4500 HZ NSC 19/18 Q1016 BECMG 4000
Station
DUBAI AL MAKTOUM
Date/Time
2022-12-06 22:00:00
Wind direction
80°
Wind speed
05 kts
Lowest cloud amount
nil significant cloud
Temperature
19°C
Dew point
18°C
Humidity
93%
QNH
1016 hPa
Weather condition
n/a

Description

International airport serving the Emirate of Dubai, UAE. It opened on 27 June 2010, previous interim names included "Jebel Ali International Airport", "Jebel Ali Airport City", and "Dubai World Central International Airport".

Climatology

Hot Desert Climate (Köppen climate classification BWh) - Hot desert climates are typically found in the subtropics where there is unbroken sunshine for the whole year due to the stable descending air and high pressure, little or no precipitation. Maximum temperatures of 40°C to 45°C are not uncommon, particularly during the warmer months of the year.

Runways

Designator Length Width Surface Rops
12/30 4500 60 ASPHALT Yes/Yes

Airport map

Aerial View

SKYbrary Partners:

Safety knowledge contributed by: